Location: Ljubljana
(46.0550°N, 14.5140°E)
Time: 11:20:08
(UTC+02:00)

OTV 5 (USA 277) - Visible Passes

Search period start: 17 October 2017 00:00
Search period end: 27 October 2017 00:00
Orbit: 404 x 417 km, 43.0° (Epoch: 07 September)

Date Brightness Start Highest point End Pass type
(mag) Time Alt. Az. Time Alt. Az. Time Alt. Az.
17 Oct ? 20:04:58 10° W 20:08:02 40° SSW 20:08:02 40° SSW visible
18 Oct ? 19:13:54 10° W 19:17:09 46° S 19:19:19 19° ESE visible
18 Oct ? 20:51:26 10° WSW 20:52:04 13° WSW 20:52:04 13° WSW visible
19 Oct ? 20:00:13 10° W 20:03:08 27° SSW 20:03:25 27° S visible
20 Oct ? 19:09:04 10° W 19:12:10 34° SSW 19:14:50 13° SE visible
21 Oct ? 19:55:51 10° WSW 19:58:00 16° SSW 19:59:06 14° S visible
22 Oct ? 19:04:28 10° WSW 19:07:06 21° SSW 19:09:43 10° SSE visible
24 Oct ? 19:00:45 10° SW 19:01:53 11° SSW 19:03:01 10° SSW visible
